Location: Helion Bumpstead
(52.0500°N, 0.4000°E)
Time: 21:12:32
(UTC+00:00)

Cosmos 1455 Rocket - Pass Details

Date: 15 November 2025
Orbit: 598 x 622 km, 82.5° (Epoch: 06 December)

Event Time Altitude Azimuth Distance (km) Brightness Sun altitude
Rises 05:58:44 0° 351° (N) 2,869 6.2 -12.2°
Reaches altitude 10° 06:00:58 10° 354° (N) 1,964 5.4 -11.8°
Maximum altitude 06:05:17 66° 77° (ENE) 666 3.4 -11.2°
Drops below altitude 10° 06:09:37 10° 160° (SSE) 1,961 6.2 -10.6°
Sets 06:11:50 0° 163° (SSE) 2,865 7.0 -10.2°
